Location: Doverdale
(52.2833°N, 2.2000°W)
Time: 03:14:15
(UTC+00:00)

MOS 1 Rocket - Pass Details

Date: 29 October 2020
Orbit: 615 x 829 km, 97.4° (Epoch: 24 November)

Event Time Altitude Azimuth Distance (km) Brightness Sun altitude
Rises 18:00:58 0° 23° (NNE) 3,038 6.3 -12.1°
Reaches altitude 10° 18:03:36 10° 39° (NE) 2,154 5.4 -12.5°
Maximum altitude 18:07:19 23° 91° (E) 1,515 4.4 -13.1°
Drops below altitude 10° 18:11:12 10° 143° (SE) 2,250 5.6 -13.7°
Sets 18:14:00 0° 158° (SSE) 3,208 6.5 -14.1°
